{"data":{"norad_id":39249,"intl_designator":"2013-048A","name":"GONETS-M 5","alt_names":[],"object_type":"PAYLOAD","status":"ACTIVE","operator":null,"country":"CIS","launch_date":"2013-09-11","launch_site_code":"PLMSC","launch_vehicle":null,"mission":null,"orbit_class":"UNKNOWN","rcs_meters":1.678,"size_class":null,"mass_kg":null,"dimensions":null,"purposes":[],"wikipedia_slug":null,"has_3d_model":false,"image_url":null,"decayed_at":null,"tle_current":{"epoch":"2026-05-25T04:09:34.657920Z","epoch_age_seconds":66832,"freshness":"FRESH","line1":"1 39249U 13048A   26145.17331780 -.00000037  00000+0 -33770-3 0  9995","line2":"2 39249  82.4845 357.7323 0015612 263.9567  95.9734 12.42890973576025","mean_motion":12.42890973,"eccentricity":0.0015612,"inclination_deg":82.4845,"raan_deg":357.7323,"arg_perigee_deg":263.9567,"mean_anomaly_deg":95.9734,"bstar":-0.0003377,"rev_number":57602,"period_min":115.85891532579,"perigee_km":1482.0811914922,"apogee_km":1506.6623128199,"semimajor_km":7872.508752156,"source":"CELESTRAK","updated_at":"2026-05-25T13:37:55.373820Z"}}}